Location: Pilipovskiye Korichintsy
(49.1833°N, 27.4667°E)
Time: 22:12:47
(UTC+00:00)

BREEZE-M DEB (TANK) - Pass Details

Date: 14 July 2020
Orbit: 428 x 13238 km, 46.0° (Epoch: 10 August)

Event Time Altitude Azimuth Distance (km) Brightness Sun altitude
Rises 00:13:32 0° 266° (W) 5,031 7.4 -14.5°
Reaches altitude 10° 00:18:03 10° 263° (W) 2,948 6.2 -14.2°
Maximum altitude 00:23:33 56° 186° (S) 674 2.9 -13.7°
Drops below altitude 10° 00:26:26 10° 106° (ESE) 1,560 5.3 -13.5°
Sets 00:28:08 0° 101° (E) 2,387 6.4 -13.3°
